Powrót do katalogu

DMSP 5D-2 F13 DEB

AktywnySSO
NORAD 40449·DEBRIS·🇺🇸 United States

Wystrzelony Mar 24, 1995 z Vandenberg Space Force Base

Loading…

Następne Przeloty (najbliższe 24 godziny)

TLE

ŚwieżeSource: Space-Track

Epoka: Sep 14, 2026, 07:38 UTC

1 40449U 95015BB  26257.31856706  .00002693  00000-0  98155-3 0  9990
2 40449  98.9210 276.4766 0022146   3.4319 356.7013 14.33844862596362

Śledź DMSP 5D-2 F13 DEB w czasie rzeczywistym z AllMySat

Download on the App Store